Location: ?????? ??????
(44.3742°N, 135.2221°E)
Time: 03:50:12
(UTC+00:00)

Resurs 1-4 Rocket - Pass Details

Date: 19 May 2025
Orbit: 797 x 813 km, 98.8° (Epoch: 19 June)

Event Time Altitude Azimuth Distance (km) Brightness Sun altitude
Rises 16:32:15 0° 23° (NNE) 3,317 6.8 -22.0°
Reaches altitude 10° 16:34:50 10° 33° (NNE) 2,381 5.7 -21.8°
Maximum altitude 16:39:32 33° 96° (E) 1,331 3.4 -21.5°
Enters shadow 16:42:20 20° 145° (SE) 1,773 3.6 -21.2°
